Weather History for K1R7 - April, 2014

Change the Weather History Date:

Thursday, April 24, 2014

  Actual Average (KMCB) Record (KMCB)
Temperature  
Mean Temperature 68 °F -  
Max Temperature 82 °F 78 °F 89 °F (1958)
Min Temperature 55 °F 54 °F 39 °F (2012)
Cooling Degree Days 4    
Growing Degree Days 18 (Base 50)    
Moisture  
Dew Point 61 °F    
Average Humidity 74    
Maximum Humidity 100    
Minimum Humidity 45    
Precipitation  
Precipitation 0.00 in - - ()
Sea Level Pressure  
Sea Level Pressure 29.92 in    
Wind  
Wind Speed 4 mph (South)    
Max Wind Speed 14 mph    
Max Gust Speed 21 mph    
Visibility 8 miles    
Events      
Averages and records for this station are not official NWS values.
T = Trace of Precipitation, MM = Missing Value Source: NWS Daily Summary

Daily Weather History Graph

Daily Weather History Graph

Search for Another Location

Airport or City:

Trip Planner

Search our weather history database for the weather conditions in past years. The results will help you decide how hot, cold, wet, or windy it might be!

Date:

Astronomy

Apr. 24, 2014 Rise Set
Actual Time 6:23 AM CDT 7:36 PM CDT
Civil Twilight 5:57 AM CDT 8:02 PM CDT
Nautical Twilight 5:27 AM CDT 8:32 PM CDT
Astronomical Twilight 4:56 AM CDT 9:03 PM CDT
Moon 3:15 AM CDT (4/24) 3:09 PM CDT (4/24)
Length of Visible Light 14h 04m
Length of Day
13h 13m
Waning Crescent, 24% of the Moon is Illuminated
Apr 24
Waning Crescent
Apr 29
New
May 6
First Quarter
May 14
Full
May 21
Last Quarter

Hourly Weather History & Observations

Time (CDT) Temp. Heat Index Dew Point Humidity Pressure Visibility Wind Dir Wind Speed Gust Speed Precip Events Conditions
12:15 AM 55.4 °F - 53.6 °F 94% 29.93 in 10.0 mi Calm Calm - N/A   Clear
12:55 AM 55.4 °F - 53.6 °F 94% 29.94 in 10.0 mi Calm Calm - N/A   Clear
1:15 AM 55.4 °F - 53.6 °F 94% 29.94 in 7.0 mi Calm Calm - N/A   Clear
1:35 AM 55.4 °F - 53.6 °F 94% 29.94 in 10.0 mi Calm Calm - N/A   Clear
2:15 AM 55.4 °F - 53.6 °F 94% 29.93 in 10.0 mi Calm Calm - N/A   Clear
2:35 AM 55.4 °F - 53.6 °F 94% 29.93 in 10.0 mi Calm Calm - N/A   Clear
2:55 AM 57.2 °F - 55.4 °F 94% 29.93 in 10.0 mi Calm Calm - N/A   Clear
3:15 AM 60.8 °F - 57.2 °F 88% 29.93 in 10.0 mi South 3.5 mph - N/A   Partly Cloudy
3:35 AM 59.0 °F - 57.2 °F 94% 29.92 in 10.0 mi Calm Calm - N/A   Clear
4:15 AM 60.8 °F - 57.2 °F 88% 29.92 in 9.0 mi Calm Calm - N/A   Clear
4:35 AM 60.8 °F - 57.2 °F 88% 29.92 in 8.0 mi Calm Calm - N/A   Clear
4:55 AM 55.4 °F - 55.4 °F 100% 29.91 in 6.0 mi Calm Calm - N/A   Clear
5:15 AM 55.4 °F - 55.4 °F 100% 29.91 in 4.0 mi Calm Calm - N/A   Clear
5:35 AM 55.4 °F - 55.4 °F 100% 29.91 in 6.0 mi Calm Calm - N/A   Clear
5:55 AM 55.4 °F - 55.4 °F 100% 29.92 in 5.0 mi Calm Calm - N/A   Clear
6:15 AM 55.4 °F - 55.4 °F 100% 29.92 in 3.0 mi Calm Calm - N/A   Clear
6:35 AM 55.4 °F - 53.6 °F 94% 29.94 in 3.0 mi Calm Calm - N/A   Clear
6:55 AM 55.4 °F - 55.4 °F 100% 29.96 in 5.0 mi Calm Calm - N/A   Clear
7:15 AM 55.4 °F - 55.4 °F 100% 29.97 in 5.0 mi Calm Calm - N/A   Clear
7:35 AM 57.2 °F - 55.4 °F 94% 29.97 in 3.0 mi Calm Calm - N/A   Clear
7:55 AM 60.8 °F - 60.8 °F 100% 29.98 in 4.0 mi Calm Calm - N/A   Clear
8:15 AM 62.6 °F - 60.8 °F 94% 29.98 in 5.0 mi Calm Calm - N/A   Clear
8:55 AM 68.0 °F - 64.4 °F 88% 29.98 in 7.0 mi Calm Calm - N/A   Clear
9:15 AM 69.8 °F - 64.4 °F 83% 29.99 in 7.0 mi Calm Calm - N/A   Clear
9:35 AM 71.6 °F - 66.2 °F 83% 29.99 in 7.0 mi Calm Calm - N/A   Clear
10:15 AM 73.4 °F - 64.4 °F 73% 29.99 in 8.0 mi South 8.1 mph - N/A   Clear
10:35 AM 73.4 °F - 64.4 °F 73% 29.99 in 9.0 mi South 10.4 mph - N/A   Clear
10:55 AM 75.2 °F - 64.4 °F 69% 29.98 in 8.0 mi South 9.2 mph - N/A   Clear
11:15 AM 75.2 °F - 64.4 °F 69% 29.97 in 8.0 mi South 8.1 mph - N/A   Clear
11:35 AM 77.0 °F - 62.6 °F 61% 29.96 in 7.0 mi South 11.5 mph 19.6 mph N/A   Clear
11:55 AM 78.8 °F - 60.8 °F 54% 29.96 in 9.0 mi South 10.4 mph 17.3 mph N/A   Clear
12:15 PM 78.8 °F - 60.8 °F 54% 29.96 in 8.0 mi South 11.5 mph 18.4 mph N/A   Clear
12:35 PM 78.8 °F - 57.2 °F 47% 29.95 in 9.0 mi South 13.8 mph - N/A   Clear
12:55 PM 80.6 °F 80.8 °F 57.2 °F 45% 29.95 in 9.0 mi SSE 11.5 mph 19.6 mph N/A   Clear
1:15 PM 78.8 °F - 60.8 °F 54% 29.94 in 8.0 mi SSE 12.7 mph 20.7 mph N/A   Clear
1:35 PM 78.8 °F - 60.8 °F 54% 29.94 in 8.0 mi South 11.5 mph 16.1 mph N/A   Partly Cloudy
1:55 PM 80.6 °F 81.5 °F 60.8 °F 51% 29.94 in 7.0 mi South 13.8 mph 18.4 mph N/A   Partly Cloudy
2:15 PM 80.6 °F 81.8 °F 62.6 °F 54% 29.94 in 10.0 mi SW 8.1 mph - N/A   Clear
2:35 PM 80.6 °F 81.5 °F 60.8 °F 51% 29.93 in 8.0 mi SSE 8.1 mph 16.1 mph N/A   Clear
2:55 PM 82.4 °F 83.4 °F 62.6 °F 51% 29.92 in 10.0 mi South 8.1 mph - N/A   Partly Cloudy
3:15 PM 80.6 °F 81.5 °F 60.8 °F 51% 29.92 in 8.0 mi South 11.5 mph 16.1 mph N/A   Scattered Clouds
3:35 PM 80.6 °F 81.8 °F 62.6 °F 54% 29.91 in 8.0 mi South 9.2 mph - N/A   Scattered Clouds
3:55 PM 80.6 °F 81.8 °F 62.6 °F 54% 29.89 in 10.0 mi South 10.4 mph - N/A   Scattered Clouds
4:15 PM 82.4 °F 83.4 °F 62.6 °F 51% 29.86 in 10.0 mi South 8.1 mph - N/A   Scattered Clouds
4:35 PM 82.4 °F 83.4 °F 62.6 °F 51% 29.85 in 9.0 mi SSE 8.1 mph - N/A   Partly Cloudy
4:55 PM 82.4 °F 83.4 °F 62.6 °F 51% 29.85 in 8.0 mi SSE 9.2 mph - N/A   Scattered Clouds
5:15 PM 80.6 °F 81.8 °F 62.6 °F 54% 29.86 in 9.0 mi SSW 10.4 mph - N/A   Mostly Cloudy
5:35 PM 80.6 °F 82.3 °F 64.4 °F 58% 29.87 in 9.0 mi South 10.4 mph - N/A   Scattered Clouds
5:55 PM 80.6 °F 82.3 °F 64.4 °F 58% 29.86 in 9.0 mi South 5.8 mph 16.1 mph N/A   Partly Cloudy
6:15 PM 78.8 °F - 62.6 °F 57% 29.86 in 9.0 mi South 6.9 mph 17.3 mph N/A   Scattered Clouds
6:35 PM 80.6 °F 82.3 °F 64.4 °F 58% 29.85 in 9.0 mi SSE 5.8 mph - N/A   Partly Cloudy
6:55 PM 78.8 °F - 64.4 °F 61% 29.85 in 10.0 mi South 5.8 mph - N/A   Partly Cloudy
7:15 PM 77.0 °F - 64.4 °F 65% 29.84 in 10.0 mi South 5.8 mph - N/A   Partly Cloudy
7:35 PM 75.2 °F - 64.4 °F 69% 29.85 in 9.0 mi SSW 4.6 mph - N/A   Partly Cloudy
7:55 PM 75.2 °F - 64.4 °F 69% 29.85 in 9.0 mi South 5.8 mph - N/A   Scattered Clouds
8:15 PM 75.2 °F - 64.4 °F 69% 29.85 in 10.0 mi South 8.1 mph - N/A   Mostly Cloudy
8:35 PM 75.2 °F - 66.2 °F 73% 29.86 in 10.0 mi SSE 5.8 mph - N/A   Mostly Cloudy
8:55 PM 73.4 °F - 66.2 °F 78% 29.87 in 8.0 mi South 8.1 mph - N/A   Mostly Cloudy
9:15 PM 73.4 °F - 66.2 °F 78% 29.87 in 9.0 mi South 6.9 mph - N/A   Scattered Clouds
9:35 PM 73.4 °F - 66.2 °F 78% 29.89 in 9.0 mi SSW 6.9 mph - N/A   Mostly Cloudy
9:55 PM 73.4 °F - 66.2 °F 78% 29.90 in 10.0 mi SSW 6.9 mph - N/A   Mostly Cloudy
10:15 PM 73.4 °F - 66.2 °F 78% 29.91 in 10.0 mi SSW 8.1 mph - N/A   Mostly Cloudy
10:35 PM 73.4 °F - 66.2 °F 78% 29.91 in 9.0 mi SSW 6.9 mph - N/A   Mostly Cloudy
10:55 PM 73.4 °F - 66.2 °F 78% 29.92 in 10.0 mi SSW 9.2 mph - N/A   Mostly Cloudy
11:15 PM 73.4 °F - 64.4 °F 73% 29.92 in 10.0 mi SSW 8.1 mph 19.6 mph N/A   Mostly Cloudy
11:35 PM 73.4 °F - 64.4 °F 73% 29.92 in 10.0 mi SSW 13.8 mph 18.4 mph N/A   Mostly Cloudy
11:55 PM 71.6 °F - 64.4 °F 78% 29.92 in 10.0 mi SSW 10.4 mph 16.1 mph N/A   Mostly Cloudy